Location: Florence
(33.9745°N, 118.2481°W)
Time: 20:03:41
(UTC+00:00)

Cosmos 1833 - Pass Details

Date: 23 March 2023
Orbit: 829 x 869 km, 70.9° (Epoch: 06 June)

Event Time Altitude Azimuth Distance (km) Brightness Sun altitude
Rises 12:43:17 0° 331° (NNW) 3,421 7.2 -15.1°
Reaches altitude 10° 12:45:49 10° 325° (NW) 2,488 6.4 -14.6°
Maximum altitude 12:51:13 45° 255° (WSW) 1,154 4.5 -13.5°
Drops below altitude 10° 12:56:40 10° 184° (S) 2,495 6.5 -12.4°
Sets 12:59:13 0° 178° (S) 3,432 7.3 -11.9°
